K5JLG-10 Weather Reports


Display with metric or nautical units.
time (UTC)temp
F
wind
direction
speed
MPH
gust
MPH
rain 1hr
in
rain 24hr
in
rain mn
in
humidity
%
barometer
mb
20260505213716 92 338 1.0 4.0 0.00 0.00 0.00 53 1003.4
20260505212736 93 135 2.0 5.0 0.00 0.00 0.00 53 1003.4
20260505211716 92 180 1.0 3.0 0.00 0.00 0.00 54 1003.6
20260505210737 92 180 1.0 3.0 0.00 0.00 0.00 55 1003.7
20260505205716 92 0.0 1.0 0.00 0.00 0.00 55 1003.8
20260505204716 93 203 2.0 3.0 0.00 0.00 0.00 55 1003.8
20260505203716 92 158 1.0 2.0 0.00 0.00 0.00 56 1004.0
20260505202716 93 158 2.0 5.0 0.00 0.00 0.00 56 1004.3
20260505201716 92 180 4.0 6.0 0.00 0.00 0.00 57 1004.2
20260505200716 92 113 1.0 3.0 0.00 0.00 0.00 59 1004.3
20260505195716 91 203 3.0 10.0 0.00 0.00 0.00 59 1004.4
20260505194716 90 248 1.0 2.0 0.00 0.00 0.00 60 1004.5
20260505193717 90 158 3.0 5.0 0.00 0.00 0.00 61 1004.5
20260505192716 89 180 3.0 8.0 0.00 0.00 0.00 62 1004.5
20260505191756 88 248 4.0 11.0 0.00 0.00 0.00 63 1004.7
20260505190716 88 135 2.0 5.0 0.00 0.00 0.00 65 1004.4
20260505185716 87 180 3.0 4.0 0.00 0.00 0.00 64 1004.5
20260505184716 87 203 5.0 8.0 0.00 0.00 0.00 65 1004.5
20260505183716 86 248 2.0 5.0 0.00 0.00 0.00 67 1004.7
20260505182736 86 203 3.0 5.0 0.00 0.00 0.00 66 1004.8
20260505181757 86 180 4.0 8.0 0.00 0.00 0.00 67 1004.7
20260505180716 86 248 5.0 8.0 0.00 0.00 0.00 66 1004.9
20260505175716 86 180 4.0 7.0 0.00 0.00 0.00 66 1004.9
20260505174736 86 180 6.0 11.0 0.00 0.00 0.00 66 1004.8
20260505173716 85 225 3.0 6.0 0.00 0.00 0.00 69 1004.8
20260505172716 85 203 4.0 7.0 0.00 0.00 0.00 69 1004.9
20260505171716 84 158 4.0 8.0 0.00 0.00 0.00 69 1004.9
20260505170716 84 180 6.0 10.0 0.00 0.00 0.00 70 1005.0
20260505165716 83 180 4.0 8.0 0.00 0.00 0.00 72 1004.9
20260505164736 82 158 7.0 11.0 0.00 0.00 0.00 72 1004.9
20260505163716 82 225 7.0 11.0 0.00 0.00 0.00 73 1004.8
20260505162716 81 203 6.0 9.0 0.00 0.00 0.00 74 1004.8
20260505161736 81 225 8.0 15.0 0.00 0.00 0.00 74 1004.7
20260505160716 80 180 4.0 8.0 0.00 0.00 0.00 75 1004.7
20260505152716 78 203 8.0 14.0 0.00 0.00 0.00 79 1004.5
20260505151736 78 180 9.0 15.0 0.00 0.00 0.00 79 1004.6
20260505150716 77 180 4.0 10.0 0.00 0.00 0.00 80 1004.6
20260505124715 72 180 5.0 8.0 0.00 0.00 0.00 87 1003.9
20260505123715 72 180 6.0 9.0 0.00 0.00 0.00 87 1004.0
20260505122715 72 203 7.0 11.0 0.00 0.00 0.00 87 1003.9
20260505121735 72 203 5.0 8.0 0.00 0.00 0.00 87 1003.7
20260505120715 72 203 8.0 11.0 0.00 0.00 0.00 87 1003.6
20260505115716 72 203 7.0 13.0 0.00 0.00 0.00 87 1003.7
20260505114716 72 203 8.0 14.0 0.00 0.00 0.00 87 1003.6
20260505113735 72 158 7.0 10.0 0.00 0.00 0.00 87 1003.4
20260505112718 72 180 9.0 14.0 0.00 0.00 0.00 87 1003.4
20260505111717 72 180 6.0 9.0 0.00 0.00 0.00 86 1003.5
20260505110717 72 180 8.0 12.0 0.00 0.00 0.00 86 1003.5
20260505101717 72 225 4.0 7.0 0.00 0.00 0.00 86 1003.6
20260505100717 72 180 7.0 9.0 0.00 0.00 0.00 86 1003.8
20260505095737 72 158 2.0 5.0 0.00 0.00 0.00 86 1003.9
20260505094717 72 180 5.0 8.0 0.00 0.00 0.00 86 1003.8
20260505093717 72 180 7.0 12.0 0.00 0.00 0.00 86 1003.8
20260505092718 72 203 8.0 14.0 0.00 0.00 0.00 85 1003.9
20260505091737 72 203 7.0 13.0 0.00 0.00 0.00 85 1004.0
20260505090717 72 180 9.0 14.0 0.00 0.00 0.00 85 1004.1
20260505085717 72 180 7.0 12.0 0.00 0.00 0.00 85 1004.1
20260505084717 72 180 8.0 13.0 0.00 0.00 0.00 85 1004.1
20260505083717 73 180 6.0 12.0 0.00 0.00 0.00 85 1004.2
20260505082717 73 158 4.0 13.0 0.00 0.00 0.00 84 1004.2
20260505081717 73 180 5.0 9.0 0.00 0.00 0.00 84 1004.2
20260505080717 73 158 8.0 13.0 0.00 0.00 0.00 84 1004.1
20260505075717 73 203 7.0 12.0 0.00 0.00 0.00 83 1004.2
20260505074717 73 158 6.0 8.0 0.00 0.00 0.00 82 1004.4
20260505073717 74 180 4.0 8.0 0.00 0.00 0.00 82 1004.6
20260505072718 74 180 7.0 12.0 0.00 0.00 0.00 81 1004.8
20260505071737 74 203 5.0 11.0 0.00 0.00 0.00 81 1004.9
20260505070717 74 203 5.0 9.0 0.00 0.00 0.00 80 1005.2
20260505065718 74 180 8.0 11.0 0.00 0.00 0.00 79 1005.4
20260505064717 74 180 6.0 8.0 0.00 0.00 0.00 78 1005.4
20260505063717 75 203 4.0 6.0 0.00 0.00 0.00 78 1005.6
20260505062717 75 158 7.0 11.0 0.00 0.00 0.00 77 1005.5
20260505061717 75 180 7.0 12.0 0.00 0.00 0.00 76 1005.7
20260505060717 75 158 5.0 9.0 0.00 0.00 0.00 76 1005.7
20260505055716 76 180 8.0 11.0 0.00 0.00 0.00 75 1005.7
20260505054737 76 158 6.0 10.0 0.00 0.00 0.00 75 1005.6
20260505053716 76 158 6.0 13.0 0.00 0.00 0.00 74 1005.5
20260505052716 76 203 3.0 6.0 0.00 0.00 0.00 74 1005.5
20260505051717 76 180 6.0 10.0 0.00 0.00 0.00 74 1005.7
20260505050716 76 180 5.0 9.0 0.00 0.00 0.00 74 1005.7
20260505041717 76 180 6.0 11.0 0.00 0.00 0.00 74 1005.7
20260505040717 76 180 6.0 9.0 0.00 0.00 0.00 74 1005.9
20260505035717 76 180 5.0 8.0 0.00 0.00 0.00 74 1005.8
20260505034717 76 135 6.0 10.0 0.00 0.00 0.00 73 1005.7
20260505033716 76 203 8.0 12.0 0.00 0.00 0.00 73 1005.6
20260505032716 76 158 5.0 7.0 0.00 0.00 0.00 73 1005.6
20260505031717 76 180 8.0 11.0 0.00 0.00 0.00 73 1005.8
20260505030717 76 203 5.0 10.0 0.00 0.00 0.00 72 1005.7
20260505025716 77 203 7.0 10.0 0.00 0.00 0.00 72 1005.8
20260505024716 77 203 7.0 17.0 0.00 0.00 0.00 72 1005.8
20260505023716 77 180 8.0 12.0 0.00 0.00 0.00 72 1005.6
20260505022716 77 203 3.0 7.0 0.00 0.00 0.00 71 1005.9
20260505021737 77 158 4.0 6.0 0.00 0.00 0.00 71 1005.5
20260505020717 77 158 6.0 10.0 0.00 0.00 0.00 71 1005.5
20260505015716 77 180 6.0 13.0 0.00 0.00 0.00 71 1005.5
20260505014717 77 180 6.0 11.0 0.00 0.00 0.00 70 1005.6
20260505013717 77 180 6.0 9.0 0.00 0.00 0.00 70 1005.5
20260505012717 78 180 6.0 9.0 0.00 0.00 0.00 69 1005.5
20260505011838 78 180 6.0 11.0 0.00 0.00 0.00 69 1005.6
20260505010717 78 180 8.0 12.0 0.00 0.00 0.00 68 1005.6
20260505005737 79 158 7.0 10.0 0.00 0.00 0.00 68 1005.6
20260505004717 79 158 6.0 8.0 0.00 0.00 0.00 67 1005.4
20260505003817 79 180 5.0 8.0 0.00 0.00 0.00 66 1005.5
20260505002716 80 180 8.0 13.0 0.00 0.00 0.00 66 1005.6
20260505001716 80 180 11.0 18.0 0.00 0.00 0.00 65 1005.6
20260505000737 80 158 7.0 12.0 0.00 0.00 0.00 65 1005.8
20260504235716 80 203 7.0 11.0 0.00 0.00 0.00 64 1005.7
20260504234716 81 203 9.0 17.0 0.00 0.00 0.00 64 1005.8
20260504233716 81 180 7.0 13.0 0.00 0.00 0.00 63 1006.0
20260504232717 81 180 7.0 10.0 0.00 0.00 0.00 63 1005.9
20260504231716 81 203 8.0 14.0 0.00 0.00 0.00 63 1005.9
20260504230716 81 203 9.0 15.0 0.00 0.00 0.00 63 1005.9
20260504225717 82 180 11.0 19.0 0.00 0.00 0.00 62 1006.2
20260504224716 82 180 9.0 15.0 0.00 0.00 0.00 61 1006.2
20260504223716 83 203 10.0 16.0 0.00 0.00 0.00 61 1006.3
20260504222716 83 135 8.0 13.0 0.00 0.00 0.00 60 1006.4
20260504221716 82 158 11.0 18.0 0.00 0.00 0.00 61 1006.4
20260504220716 82 180 10.0 15.0 0.00 0.00 0.00 61 1006.5
20260504215716 82 180 8.0 11.0 0.00 0.00 0.00 62 1006.6
20260504214717 82 158 7.0 15.0 0.00 0.00 0.00 61 1006.8